User: anonymous   Login
Location: Bowman Observatory
(41.0326°N, 73.6210°W)
Time: 11:08:20
(UTC-05:00)
Language:

Cosmos 2297 - Orbit

View from above orbital plane
View from above orbital plane
View from above satellite
View from above satellite

Ground track
Ground track

The orbit data is extracted from the following two-line orbital elements,

1 23404U 94077A   15030.88582817  .00000251  00000-0  15863-3 0  9710
2 23404 071.0173 310.5578 0015230 020.1579 041.1500 14.13427419 41370
Epoch (UTC): 30 January 2015 21:15:35
Eccentricity: 0.0015230
inclination: 71.0173°
perigee height: 836 km
apogee height: 858 km
right ascension of ascending node: 310.5578°
argument of perigee: 20.1579°
revolutions per day: 14.13427419
mean anomaly at epoch: 41.1500°
orbit number at epoch: 4137

The dashed part of the orbit path shows where the satellite is in the earth's shadow,  

DLR